Météo par heure à Ali-Kuyu

Ce jour, 15 Mai, Samedi

Heure Température Précipitation Vent Pression Humidité
00:00 +19°C° 0 mm 3 m/s 750 mmHg 52%
01:00 +19°C° 0 mm 3 m/s 750 mmHg 55%
02:00 +18°C° 0 mm 3 m/s 750 mmHg 59%
03:00 +18°C° 0 mm 2 m/s 750 mmHg 63%
04:00 +19°C° 0 mm 2 m/s 750 mmHg 62%
05:00 +19°C° 0 mm 2 m/s 750 mmHg 62%
06:00 +20°C° 0 mm 1 m/s 751 mmHg 61%
07:00 +22°C° 0 mm 1 m/s 751 mmHg 57%
08:00 +24°C° 0 mm 1 m/s 751 mmHg 53%
09:00 +26°C° 0 mm 1 m/s 751 mmHg 47%
10:00 +28°C° 0 mm 1 m/s 751 mmHg 44%
11:00 +30°C° 0 mm 1 m/s 751 mmHg 41%
12:00 +31°C° 0 mm 1 m/s 751 mmHg 39%
13:00 +32°C° 0 mm 2 m/s 751 mmHg 37%
14:00 +34°C° 0 mm 3 m/s 750 mmHg 35%
15:00 +34°C° 0 mm 4 m/s 750 mmHg 33%
16:00 +33°C° 0.1 mm 4 m/s 750 mmHg 32%
17:00 +30°C° 0.1 mm 5 m/s 750 mmHg 31%
18:00 +29°C° 0.1 mm 6 m/s 750 mmHg 30%
19:00 +27°C° 0.2 mm 5 m/s 751 mmHg 35%
20:00 +23°C° 0.2 mm 4 m/s 751 mmHg 40%
21:00 +21°C° 0.2 mm 4 m/s 751 mmHg 45%
22:00 +20°C° 0 mm 3 m/s 751 mmHg 47%
23:00 +19°C° 0 mm 3 m/s 750 mmHg 48%

Demain, 16 Mai, Dimanche

Heure Température Précipitation Vent Pression Humidité
00:00 +18°C° 0 mm 3 m/s 750 mmHg 50%
01:00 +18°C° 0 mm 3 m/s 750 mmHg 52%
02:00 +17°C° 0 mm 3 m/s 750 mmHg 55%
03:00 +16°C° 0 mm 2 m/s 750 mmHg 57%
04:00 +17°C° 0 mm 2 m/s 750 mmHg 57%
05:00 +18°C° 0 mm 3 m/s 750 mmHg 58%
06:00 +18°C° 0 mm 3 m/s 750 mmHg 59%
07:00 +21°C° 0 mm 3 m/s 750 mmHg 52%
08:00 +23°C° 0 mm 4 m/s 749 mmHg 45%
09:00 +26°C° 0 mm 5 m/s 749 mmHg 39%
10:00 +28°C° 0 mm 6 m/s 749 mmHg 35%
11:00 +30°C° 0 mm 7 m/s 748 mmHg 32%
12:00 +33°C° 0 mm 7 m/s 748 mmHg 28%
13:00 +33°C° 0 mm 8 m/s 747 mmHg 26%
14:00 +34°C° 0 mm 9 m/s 747 mmHg 23%
15:00 +34°C° 0 mm 10 m/s 747 mmHg 21%
16:00 +32°C° 0 mm 9 m/s 746 mmHg 25%
17:00 +31°C° 0 mm 8 m/s 746 mmHg 28%
18:00 +28°C° 0 mm 8 m/s 746 mmHg 32%
19:00 +26°C° 0 mm 7 m/s 746 mmHg 32%
20:00 +24°C° 0 mm 7 m/s 746 mmHg 32%
21:00 +22°C° 0 mm 6 m/s 747 mmHg 32%
22:00 +22°C° 0 mm 6 m/s 746 mmHg 32%
23:00 +22°C° 0 mm 5 m/s 746 mmHg 32%

Après-demain, 17 Mai, Lundi

Heure Température Précipitation Vent Pression Humidité
00:00 +22°C° 0 mm 5 m/s 746 mmHg 32%
01:00 +21°C° 0 mm 5 m/s 746 mmHg 35%
02:00 +20°C° 0 mm 5 m/s 745 mmHg 37%
03:00 +20°C° 0 mm 5 m/s 745 mmHg 40%
04:00 +20°C° 0 mm 5 m/s 745 mmHg 44%
05:00 +19°C° 0 mm 4 m/s 746 mmHg 48%
06:00 +19°C° 0 mm 4 m/s 746 mmHg 52%
07:00 +22°C° 0 mm 5 m/s 746 mmHg 47%
08:00 +25°C° 0 mm 5 m/s 746 mmHg 42%
09:00 +27°C° 0 mm 5 m/s 746 mmHg 36%
10:00 +29°C° 0 mm 6 m/s 746 mmHg 33%
11:00 +32°C° 0 mm 6 m/s 746 mmHg 29%
12:00 +33°C° 0 mm 7 m/s 746 mmHg 25%
13:00 +34°C° 0 mm 7 m/s 745 mmHg 25%
14:00 +34°C° 0 mm 8 m/s 745 mmHg 25%
15:00 +34°C° 0 mm 8 m/s 745 mmHg 25%
16:00 +32°C° 0 mm 8 m/s 745 mmHg 30%
17:00 +29°C° 0 mm 7 m/s 745 mmHg 35%
18:00 +28°C° 0 mm 6 m/s 745 mmHg 40%
19:00 +26°C° 0 mm 5 m/s 746 mmHg 45%
20:00 +23°C° 0 mm 5 m/s 747 mmHg 49%
21:00 +21°C° 0 mm 4 m/s 748 mmHg 53%
22:00 +21°C° 0 mm 4 m/s 747 mmHg 58%
23:00 +21°C° 0 mm 3 m/s 747 mmHg 63%

18 Mai, Mardi

Heure Température Précipitation Vent Pression Humidité
00:00 +21°C° 0 mm 3 m/s 747 mmHg 68%
01:00 +20°C° 0 mm 4 m/s 747 mmHg 70%
02:00 +19°C° 0 mm 5 m/s 747 mmHg 71%
03:00 +19°C° 0 mm 6 m/s 747 mmHg 73%
04:00 +18°C° 0 mm 7 m/s 747 mmHg 75%
05:00 +18°C° 0 mm 7 m/s 748 mmHg 78%
06:00 +20°C° 0 mm 7 m/s 749 mmHg 81%
07:00 +20°C° 0.1 mm 7 m/s 749 mmHg 77%
08:00 +21°C° 0.1 mm 8 m/s 749 mmHg 74%
09:00 +21°C° 0.1 mm 8 m/s 750 mmHg 71%
10:00 +21°C° 0.1 mm 7 m/s 750 mmHg 69%
11:00 +22°C° 0.1 mm 7 m/s 750 mmHg 68%
12:00 +22°C° 0.1 mm 6 m/s 750 mmHg 66%
13:00 +22°C° 0.1 mm 6 m/s 750 mmHg 65%
14:00 +22°C° 0.1 mm 6 m/s 750 mmHg 64%
15:00 +23°C° 0.1 mm 6 m/s 750 mmHg 63%
16:00 +23°C° 0 mm 5 m/s 750 mmHg 62%
17:00 +23°C° 0 mm 4 m/s 750 mmHg 62%
18:00 +23°C° 0 mm 4 m/s 750 mmHg 61%
19:00 +22°C° 0 mm 3 m/s 751 mmHg 65%
20:00 +21°C° 0 mm 3 m/s 751 mmHg 69%
21:00 +19°C° 0 mm 3 m/s 751 mmHg 73%
22:00 +19°C° 0 mm 3 m/s 751 mmHg 76%
23:00 +18°C° 0 mm 3 m/s 751 mmHg 79%

19 Mai, Mercredi

Heure Température Précipitation Vent Pression Humidité
00:00 +18°C° 0 mm 3 m/s 751 mmHg 82%
01:00 +17°C° 0 mm 3 m/s 751 mmHg 82%
02:00 +17°C° 0 mm 3 m/s 752 mmHg 83%
03:00 +17°C° 0 mm 3 m/s 752 mmHg 84%
04:00 +17°C° 0 mm 3 m/s 752 mmHg 82%
05:00 +18°C° 0 mm 3 m/s 752 mmHg 80%
06:00 +18°C° 0 mm 3 m/s 753 mmHg 78%
07:00 +20°C° 0 mm 2 m/s 753 mmHg 70%
08:00 +23°C° 0 mm 2 m/s 753 mmHg 62%
09:00 +25°C° 0 mm 2 m/s 753 mmHg 54%
10:00 +26°C° 0 mm 2 m/s 752 mmHg 49%
11:00 +27°C° 0 mm 2 m/s 752 mmHg 44%
12:00 +29°C° 0 mm 2 m/s 752 mmHg 38%
13:00 +29°C° 0 mm 2 m/s 752 mmHg 36%
14:00 +30°C° 0 mm 2 m/s 752 mmHg 34%
15:00 +31°C° 0 mm 2 m/s 752 mmHg 32%
16:00 +30°C° 0 mm 2 m/s 752 mmHg 34%
17:00 +30°C° 0 mm 2 m/s 751 mmHg 36%
18:00 +30°C° 0 mm 2 m/s 751 mmHg 38%
19:00 +28°C° 0 mm 2 m/s 752 mmHg 39%
20:00 +26°C° 0 mm 2 m/s 752 mmHg 41%
21:00 +24°C° 0 mm 2 m/s 752 mmHg 43%
22:00 +24°C° 0 mm 2 m/s 752 mmHg 47%
23:00 +23°C° 0 mm 2 m/s 751 mmHg 51%

20 Mai, Jeudi

Heure Température Précipitation Vent Pression Humidité
00:00 +21°C° 0 mm 3 m/s 751 mmHg 55%
01:00 +21°C° 0 mm 2 m/s 751 mmHg 59%
02:00 +20°C° 0 mm 2 m/s 751 mmHg 62%
03:00 +20°C° 0 mm 2 m/s 751 mmHg 65%
04:00 +20°C° 0 mm 2 m/s 751 mmHg 64%
05:00 +21°C° 0 mm 3 m/s 751 mmHg 64%
06:00 +21°C° 0 mm 3 m/s 752 mmHg 64%
07:00 +23°C° 0 mm 4 m/s 751 mmHg 56%
08:00 +27°C° 0 mm 5 m/s 751 mmHg 48%
09:00 +29°C° 0 mm 6 m/s 751 mmHg 40%
10:00 +30°C° 0 mm 6 m/s 751 mmHg 37%
11:00 +33°C° 0 mm 6 m/s 750 mmHg 34%
12:00 +34°C° 0 mm 7 m/s 750 mmHg 31%
13:00 +34°C° 0 mm 7 m/s 749 mmHg 29%
14:00 +35°C° 0 mm 8 m/s 749 mmHg 27%
15:00 +35°C° 0 mm 8 m/s 749 mmHg 25%
16:00 +34°C° 0 mm 8 m/s 749 mmHg 28%
17:00 +32°C° 0 mm 7 m/s 749 mmHg 32%
18:00 +30°C° 0 mm 7 m/s 749 mmHg 35%
19:00 +28°C° 0 mm 7 m/s 749 mmHg 39%
20:00 +26°C° 0 mm 6 m/s 748 mmHg 43%
21:00 +23°C° 0 mm 6 m/s 748 mmHg 47%
22:00 +22°C° 0 mm 5 m/s 748 mmHg 51%
23:00 +21°C° 0 mm 5 m/s 748 mmHg 55%
Voir plus

Nous avons besoin de votre consentement

Meteoprog et ses fournisseurs de services peuvent stocker et accéder à des données personnelles telles que des cookies, des identifiants d'appareils ou d'autres technologies similaires sur votre appareil et traiter ces données pour personnaliser le contenu et les publicités, ainsi que pour fournir des fonctionnalités de médias sociaux et analyser le trafic.

  • Stocker et/ou accéder à des informations sur votre appareil

    Des cookies, des identifiants d'appareils ou d'autres informations peuvent être stockés ou accessibles sur votre appareil aux fins indiquées ci-dessus.

  • Annonces et contenus personnalisés, mesure des annonces et des contenus, connaissance de l'audience et développement de produits

    Les annonces et le contenu peuvent être personnalisés en fonction d'un profil. D'autres données peuvent être ajoutées pour mieux personnaliser les annonces et le contenu. Les performances des publicités et du contenu peuvent être mesurées. Il est possible d'obtenir des informations sur le public qui a vu les publicités et le contenu. Ces données peuvent être utilisées pour développer ou améliorer l'expérience de l'utilisateur, les systèmes et les logiciels.

En cliquant sur "J'accepte", vous autorisez l'utilisation de cookies, des identifiants d'appareils, des balises web ou d'autres technologies similaires. Vos paramètres peuvent être modifiés dans le navigateur de votre appareil.

Dans certains cas, des intérêts légitimes peuvent être invoqués plutôt qu'un consentement. Vous pouvez en savoir plus à ce sujet dans notre Politique de confidentialité et de cookies.